"Pseudo-MPEC" for 8N9E001

Created 2026 Jul 25 0:35:03 UT using Find_Orb

Click here for an explanation of pseudo-MPECs

 
 Astrometry: 
     8N9E001*KB2026 07 23.94697921 01 59.354+03 47 44.34   ~7O6K 19.1 GXNEOCPK19
     8N9E001 KB2026 07 23.95074121 01 59.582+03 46 24.92   ~7O6K 18.4 GXNEOCPK19
     8N9E001 KB2026 07 23.95454921 01 59.842+03 45 05.33   ~7O6K 18.0 GXNEOCPK19
     8N9E001 KB2026 07 24.51910121 04 21.135+00 08 31.82   ~7OE5 18.7 GXNEOCPQ06
     8N9E001 KB2026 07 24.52474421 04 21.915+00 06 09.91   ~7OE5       XNEOCPQ06
     8N9E001 KB2026 07 24.53038721 04 22.538+00 03 48.57   ~7OE5 18.6 GXNEOCPQ06
     8N9E001 KB2026 07 24.85871521 05 47.678-02 22 38.71   ~7OLK 17.6 GWNEOCPL47
     8N9E001 KB2026 07 24.86035921 05 47.971-02 23 24.68   ~7OLK 17.4 GWNEOCPL47
     8N9E001 KB2026 07 24.86199121 05 48.242-02 24 11.20   ~7OLK 17.4 GWNEOCPL47

Station data:
(K19) PASTIS Observatory, Banon  (N43.999459 E5.647310)  France.  Observer C.
   Demeautis. 0.16-m f/3.3 reflector + CCD.
(L47) Osservatorio Astronomico, Piobbico  (N43.585893 E12.507110)  Italy.
   Observers A. Teseo, A. Annamelia. 0.20-m f/6.3 Schmidt-Cassegrain + CCD.
(Q06) Tarui Observatory, Tarui  (N35.394791 E136.495470)  Japan.  Observer H.
   Watanabe. 0.35-m f/1.9 Schmidt-Cassegrain + CMO.

Orbital elements:  8N9E001
   Perihelion 2026 Nov 16.271044 +/- 0.145 TT =  6:30:18.2 (JD 2461360.771044)
Epoch 2026 Jul 24.0 TT = JDT 2461245.5   Earth MOID: 0.0092      AutoNEOCP
M 240.802575368 +/- 0.14            (J2000 ecliptic)
n   1.034062159 +/- 6.64e-5         Peri.  307.549675 +/- 0.07
a   0.968511879 +/- 4.15e-5         Node   123.116314 +/- 0.00056
e   0.11226787 +/- 0.00053          Incl.    8.230703 +/- 0.048
P   0.953/348.135d         H 26.39  G  0.15   U  6.3
q 0.859779111 +/- 0.000545    Q 1.077244647 +/- 0.000475
From 9 observations 2026 July 23-24 (22.0 hr); mean residual 0".48
Residuals in arcseconds: 
260723 K19  .18-  .32-    260724 Q06  1.1-  .34-    260724 L47  .47-  .17+    
260723 K19  .22-  .31-    260724 Q06  .74+  .26-    260724 L47  .02+  .28+    
260723 K19  .28+  .61+    260724 Q06  .66+  .64+    260724 L47  .25+  .48-    

Ephemerides (geocentric):
Date (UTC) HH   RA             Dec           delta  r     elong  mag " sig PA
---- --------  ------------   ------------  ------ ------ -----  --- --------
2026 07 25 01  21 06 14.756   -03 42 34.97  .01360 1.0285 159.8 18.1 3.79 139
2026 07 25 02  21 06 26.834   -04 03 10.28  .01352 1.0284 160.1 18.1 3.92 140
2026 07 25 03  21 06 39.078   -04 24 01.73  .01343 1.0284 160.4 18.1 4.07 140
2026 07 25 04  21 06 51.492   -04 45 09.53  .01334 1.0283 160.7 18.0 4.22 140
2026 07 25 05  21 07 04.079   -05 06 33.91  .01326 1.0282 160.9 18.0 4.38 141
2026 07 25 06  21 07 16.843   -05 28 15.09  .01317 1.0282 161.2 18.0 4.55 141
2026 07 25 07  21 07 29.787   -05 50 13.29  .01308 1.0281 161.5 18.0 4.73 142
2026 07 25 08  21 07 42.915   -06 12 28.72  .01300 1.0280 161.8 18.0 4.92 142
2026 07 25 09  21 07 56.232   -06 35 01.61  .01292 1.0280 162.0 17.9 5.11 143
2026 07 25 10  21 08 09.742   -06 57 52.17  .01283 1.0279 162.3 17.9 5.32 143
2026 07 25 11  21 08 23.448   -07 21 00.62  .01275 1.0279 162.6 17.9 5.53 144
2026 07 25 12  21 08 37.355   -07 44 27.18  .01267 1.0278 162.9 17.9 5.76 144
2026 07 25 13  21 08 51.468   -08 08 12.07  .01259 1.0277 163.1 17.8 5.99 145
2026 07 25 14  21 09 05.791   -08 32 15.50  .01251 1.0277 163.4 17.8 6.24 146
2026 07 25 15  21 09 20.329   -08 56 37.68  .01242 1.0276 163.7 17.8 6.50 146
2026 07 25 16  21 09 35.086   -09 21 18.82  .01235 1.0275 164.0 17.8 6.77 147
2026 07 25 17  21 09 50.068   -09 46 19.13  .01227 1.0275 164.2 17.7 7.05 147
2026 07 25 18  21 10 05.281   -10 11 38.81  .01219 1.0274 164.5 17.7 7.34 148
2026 07 25 19  21 10 20.728   -10 37 18.08  .01211 1.0273 164.7 17.7 7.65 148
2026 07 25 20  21 10 36.417   -11 03 17.11  .01203 1.0273 165.0 17.7 7.97 149
2026 07 25 21  21 10 52.352   -11 29 36.12  .01196 1.0272 165.2 17.7 8.30 149
2026 07 25 22  21 11 08.539   -11 56 15.28  .01188 1.0271 165.4 17.6 8.64 150
2026 07 25 23  21 11 24.985   -12 23 14.78  .01181 1.0271 165.7 17.6 9.00 150
2026 07 26 00  21 11 41.696   -12 50 34.80  .01173 1.0270 165.9 17.6 9.37 151
2026 07 26 01  21 11 58.677   -13 18 15.51  .01166 1.0269 166.1 17.6 9.75 151
2026 07 26 02  21 12 15.937   -13 46 17.07  .01159 1.0269 166.3 17.6 10.1 151
2026 07 26 03  21 12 33.481   -14 14 39.64  .01151 1.0268 166.4 17.5 10.6 152
2026 07 26 04  21 12 51.317   -14 43 23.38  .01144 1.0267 166.6 17.5 11.0 152
2026 07 26 05  21 13 09.452   -15 12 28.42  .01137 1.0267 166.8 17.5 11.4 153
2026 07 26 06  21 13 27.893   -15 41 54.90  .01130 1.0266 166.9 17.5 11.9 153
2026 07 26 07  21 13 46.650   -16 11 42.93  .01124 1.0265 167.0 17.5 12.4 154
2026 07 26 08  21 14 05.728   -16 41 52.64  .01117 1.0265 167.1 17.4 12.8 154
2026 07 26 09  21 14 25.138   -17 12 24.12  .01110 1.0264 167.2 17.4 13.4 154
2026 07 26 10  21 14 44.887   -17 43 17.46  .01104 1.0264 167.3 17.4 13.9 155
2026 07 26 11  21 15 04.986   -18 14 32.73  .01097 1.0263 167.3 17.4 14.4 155
2026 07 26 12  21 15 25.442   -18 46 10.01  .01091 1.0262 167.3 17.4 15.0 155
2026 07 26 13  21 15 46.265   -19 18 09.34  .01084 1.0262 167.3 17.4 15.5 156
2026 07 26 14  21 16 07.467   -19 50 30.76  .01078 1.0261 167.3 17.4 16.1 156
2026 07 26 15  21 16 29.056   -20 23 14.28  .01072 1.0260 167.2 17.3 16.7 156
2026 07 26 16  21 16 51.044   -20 56 19.90  .01066 1.0260 167.2 17.3 17.3 156
2026 07 26 17  21 17 13.441   -21 29 47.63  .01060 1.0259 167.1 17.3 17.9 157
2026 07 26 18  21 17 36.260   -22 03 37.41  .01054 1.0258 166.9 17.3 18.6 157
2026 07 26 19  21 17 59.512   -22 37 49.21  .01049 1.0258 166.8 17.3 19.3 157
2026 07 26 20  21 18 23.210   -23 12 22.94  .01043 1.0257 166.6 17.3 19.9 158
2026 07 26 21  21 18 47.366   -23 47 18.53  .01038 1.0256 166.4 17.3 20.6 158
2026 07 26 22  21 19 11.994   -24 22 35.86  .01032 1.0256 166.1 17.3 21.3 158
2026 07 26 23  21 19 37.108   -24 58 14.80  .01027 1.0255 165.9 17.3 22.1 158
2026 07 27 00  21 20 02.722   -25 34 15.20  .01022 1.0254 165.6 17.3 22.8 158